| time (UTC) | temp F | wind direction | speed knots | gust knots | rain 1hr in | rain 24hr in | rain mn in | humidity % | barometer mb |
| 20260503223005 | 88 | 75 | 1.7 | 7.8 | 0.00 | 0.00 | 0.00 | 36 | 1010.7 |
| 20260503222005 | 87 | 91 | 1.7 | 7.8 | 0.00 | 0.00 | 0.00 | 40 | 1010.9 |
| 20260503221006 | 87 | 90 | 1.7 | 5.2 | 0.00 | 0.00 | 0.00 | 38 | 1010.9 |
| 20260503220008 | 86 | 77 | 2.6 | 7.0 | 0.00 | 0.00 | 0.00 | 36 | 1011.1 |
| 20260503213005 | 85 | 29 | 2.6 | 7.8 | 0.00 | 0.00 | 0.00 | 38 | 1011.4 |
| 20260503212005 | 85 | 100 | 1.7 | 6.1 | 0.00 | 0.00 | 0.00 | 39 | 1011.4 |
| 20260503210006 | 84 | 26 | 1.7 | 7.0 | 0.00 | 0.00 | 0.00 | 42 | 1011.5 |
| 20260503204005 | 83 | 98 | 1.7 | 5.2 | 0.00 | 0.00 | 0.00 | 43 | 1011.7 |
| 20260503202008 | 83 | 333 | 2.6 | 5.2 | 0.00 | 0.00 | 0.00 | 43 | 1012.1 |
| 20260503200006 | 82 | 97 | 2.6 | 5.2 | 0.00 | 0.00 | 0.00 | 45 | 1012.3 |
| 20260503195004 | 82 | 73 | 1.7 | 5.2 | 0.00 | 0.00 | 0.00 | 44 | 1012.5 |
| 20260503194004 | 81 | 91 | 0.9 | 4.3 | 0.00 | 0.00 | 0.00 | 45 | 1012.7 |
| 20260503192004 | 80 | 70 | 1.7 | 7.0 | 0.00 | 0.00 | 0.00 | 45 | 1012.9 |
| 20260503191004 | 80 | 77 | 2.6 | 8.7 | 0.00 | 0.00 | 0.00 | 45 | 1013.1 |
| 20260503190009 | 79 | 106 | 1.7 | 5.2 | 0.00 | 0.00 | 0.00 | 48 | 1013.1 |
| 20260503185004 | 79 | 102 | 1.7 | 4.3 | 0.00 | 0.00 | 0.00 | 47 | 1013.2 |
| 20260503184004 | 78 | 331 | 1.7 | 7.0 | 0.00 | 0.00 | 0.00 | 48 | 1013.3 |
| 20260503183004 | 77 | 354 | 2.6 | 7.0 | 0.00 | 0.00 | 0.00 | 50 | 1013.4 |
| 20260503182004 | 76 | 337 | 1.7 | 5.2 | 0.00 | 0.00 | 0.00 | 52 | 1013.3 |
| 20260503181004 | 76 | 86 | 2.6 | 7.8 | 0.00 | 0.00 | 0.00 | 50 | 1013.4 |
| 20260503180008 | 75 | 10 | 1.7 | 7.0 | 0.00 | 0.00 | 0.00 | 52 | 1013.5 |
| 20260503175004 | 74 | 25 | 2.6 | 7.0 | 0.00 | 0.00 | 0.00 | 54 | 1013.8 |
| 20260503174004 | 74 | 79 | 1.7 | 7.0 | 0.00 | 0.00 | 0.00 | 53 | 1013.8 |
| 20260503173004 | 73 | 312 | 1.7 | 4.3 | 0.00 | 0.00 | 0.00 | 56 | 1013.8 |
| 20260503172004 | 72 | 79 | 1.7 | 7.8 | 0.00 | 0.00 | 0.00 | 56 | 1013.9 |
| 20260503171004 | 71 | 136 | 0.9 | 5.2 | 0.00 | 0.00 | 0.00 | 59 | 1013.9 |
| 20260503151004 | 55 | 40 | 0.0 | 0.9 | 0.00 | 0.00 | 0.00 | 92 | 1014.2 |
| 20260503081004 | 54 | 40 | 0.0 | 0.9 | 0.00 | 0.00 | 0.00 | 82 | 1014.3 |
| 20260503071006 | 56 | 40 | 0.0 | 0.9 | 0.00 | 0.00 | 0.00 | 77 | 1014.2 |
| 20260503055006 | 59 | 40 | 0.0 | 0.9 | 0.00 | 0.00 | 0.00 | 71 | 1014.2 |
| 20260503054006 | 60 | 40 | 0.0 | 0.9 | 0.00 | 0.00 | 0.00 | 69 | 1014.2 |
| 20260503053006 | 60 | 40 | 0.0 | 0.0 | 0.00 | 0.00 | 0.00 | 67 | 1014.2 |
| 20260503052007 | 61 | 40 | 0.0 | 0.0 | 0.00 | 0.00 | 0.00 | 67 | 1014.3 |
| 20260503050008 | 63 | 40 | 0.0 | 0.9 | 0.00 | 0.00 | 0.00 | 66 | 1014.2 |
| 20260503045005 | 63 | 40 | 0.0 | 0.9 | 0.00 | 0.00 | 0.00 | 65 | 1014.1 |
| 20260503043006 | 65 | 40 | 0.0 | 2.6 | 0.00 | 0.00 | 0.00 | 57 | 1013.9 |
| 20260503042006 | 65 | 40 | 0.0 | 1.7 | 0.00 | 0.00 | 0.00 | 60 | 1013.9 |
| 20260503041005 | 66 | 40 | 0.0 | 1.7 | 0.00 | 0.00 | 0.00 | 58 | 1013.7 |
| 20260503040007 | 67 | 40 | 0.0 | 1.7 | 0.00 | 0.00 | 0.00 | 56 | 1013.5 |
| 20260503035005 | 68 | 40 | 0.9 | 2.6 | 0.00 | 0.00 | 0.00 | 54 | 1013.4 |
| 20260503034005 | 68 | 101 | 0.9 | 2.6 | 0.00 | 0.00 | 0.00 | 54 | 1013.3 |
| 20260503032005 | 70 | 84 | 1.7 | 7.0 | 0.00 | 0.00 | 0.00 | 51 | 1013.1 |
| 20260503031004 | 70 | 77 | 1.7 | 7.8 | 0.00 | 0.00 | 0.00 | 51 | 1013.1 |
| 20260503030007 | 71 | 93 | 0.9 | 3.5 | 0.00 | 0.00 | 0.00 | 51 | 1012.9 |
| 20260503025006 | 72 | 94 | 0.9 | 4.3 | 0.00 | 0.00 | 0.00 | 50 | 1012.8 |
| 20260503024004 | 72 | 69 | 0.9 | 1.7 | 0.00 | 0.00 | 0.00 | 51 | 1012.7 |
| 20260503023005 | 73 | 85 | 1.7 | 7.0 | 0.00 | 0.00 | 0.00 | 49 | 1012.6 |
| 20260503020008 | 76 | 79 | 0.9 | 4.3 | 0.00 | 0.00 | 0.00 | 46 | 1012.5 |
| 20260503015005 | 77 | 86 | 1.7 | 5.2 | 0.00 | 0.00 | 0.00 | 47 | 1012.4 |
| 20260503013006 | 77 | 42 | 1.7 | 3.5 | 0.00 | 0.00 | 0.00 | 45 | 1012.6 |
| 20260503012011 | 78 | 71 | 1.7 | 7.8 | 0.00 | 0.00 | 0.00 | 45 | 1012.6 |
| 20260503011004 | 78 | 56 | 1.7 | 7.0 | 0.00 | 0.00 | 0.00 | 45 | 1012.6 |
| 20260503010008 | 78 | 88 | 1.7 | 7.8 | 0.00 | 0.00 | 0.00 | 45 | 1012.7 |
| 20260503005004 | 79 | 129 | 1.7 | 4.3 | 0.00 | 0.00 | 0.00 | 44 | 1012.6 |
| 20260503004007 | 79 | 93 | 1.7 | 7.8 | 0.00 | 0.00 | 0.00 | 45 | 1012.8 |
| 20260503002005 | 79 | 111 | 0.9 | 2.6 | 0.00 | 0.00 | 0.00 | 46 | 1012.8 |
| 20260503000008 | 78 | 72 | 2.6 | 5.2 | 0.00 | 0.00 | 0.00 | 45 | 1012.9 |
| 20260502235006 | 78 | 82 | 1.7 | 7.8 | 0.00 | 0.00 | 0.00 | 46 | 1013.1 |
| 20260502234005 | 78 | 67 | 2.6 | 7.0 | 0.00 | 0.00 | 0.00 | 47 | 1013.4 |
| 20260502233004 | 78 | 85 | 3.5 | 8.7 | 0.00 | 0.00 | 0.00 | 47 | 1013.5 |
| 20260502231006 | 79 | 354 | 1.7 | 4.3 | 0.00 | 0.00 | 0.00 | 48 | 1013.7 |
| 20260502230007 | 79 | 113 | 1.7 | 6.1 | 0.00 | 0.00 | 0.00 | 48 | 1013.8 |
| 20260502225004 | 79 | 69 | 1.7 | 7.0 | 0.00 | 0.00 | 0.00 | 48 | 1013.9 |
| 20260502224005 | 78 | 49 | 1.7 | 5.2 | 0.00 | 0.00 | 0.00 | 51 | 1014.0 |